Skip Page Navigation
NASA JPL Caltech
NASA Logo - Jet Propulsion Laboratory + View the NASA Portal
+ Center for Near-Earth Object Studies
JPL Home Earth Solar System Stars & Galaxies Technology
JPL Solar System Dynamics
BODIES ORBITS EPHEMERIDES TOOLS PHYSICAL DATA DISCOVERY FAQ SITE MAP
IMPORTANT: The SSD Announcement email list is now available. Major changes are coming in the near future, including possible hostname and/or URL changes. To be notified of such changes, subscribe to this email list.

Please visit this page for more details.


JPL Small-Body Database Browser
Search: [ help ]  
48112 (2001 FV74)
Classification: Main-belt Asteroid          SPK-ID: 2048112
Ephemeris | Orbit Diagram | Orbital Elements | Mission Design | Physical Parameters | Discovery Circumstances | Close-Approach Data ]

[ show orbit diagram ]
Orbital Elements at Epoch 2458600.5 (2019-Apr-27.0) TDB
Reference: JPL 19 (heliocentric ecliptic J2000)
 Element Value Uncertainty (1-sigma)   Units 
e .08762021823722885 7.6972e-08  
a 2.468921095192086 2.037e-08 au
q 2.252593690020857 2.0421e-07 au
i 6.517220634151306 5.4705e-06 deg
node 173.9096990314567 3.5826e-05 deg
peri 34.40713035846808 5.2093e-05 deg
M 230.3015602965426 4.7119e-05 deg
tp 2459110.995000526578
(2020-Sep-18.49500053)
0.00019035 TDB
period 1416.965389944234
3.88
1.7536e-05
4.801e-08
d
yr
n .2540640742214375 3.1443e-09 deg/d
Q 2.685248500363314 2.2155e-08 au
  Orbit Determination Parameters
   # obs. used (total)      766  
   data-arc span      7986 days (21.86 yr)  
   first obs. used      1997-03-08  
   last obs. used      2019-01-18  
   planetary ephem.      DE431  
   SB-pert. ephem.      SB431-N16  
   condition code      0  
   norm. resid. RMS      .60993  
   source      ORB  
   producer      Otto Matic  
   solution date      2019-Jul-13 02:45:05  

Additional Information
 Earth MOID = 1.2521 au 
 Jupiter MOID = 2.2771 au 
 T_jup = 3.471 
[ show covariance matrix ]

Ephemeris | Orbit Diagram | Orbital Elements | Mission Design | Physical Parameters | Discovery Circumstances | Close-Approach Data ]

Physical Parameter Table
Parameter Symbol Value Units Sigma Reference Notes
absolute magnitude H 15.3   n/a MPO365815  

48112 (2001 FV74)          Discovered 2001-Mar-19 by LINEAR at Socorro
Reference: 20020921/Numbers.arcLast Updated: 2004-04-19

[ show close-approach data ]
Alternate Designations
 2001 FV74 = 1997 EM52 
Ephemeris | Orbit Diagram | Orbital Elements | Mission Design | Physical Parameters | Discovery Circumstances | Close-Approach Data ]
ABOUT SSD CREDITS/AWARDS PRIVACY/COPYRIGHT GLOSSARY LINKS
FirstGov
(server date/time)  
NASA Home Page
Site Manager:   Ryan S. Park
Webmaster  Alan B. Chamberlin